Weather Roundup
Issued by NWS

Home | Current Version | Previous Version | Graphics & Text | Print | Product List | Glossary Off
Versions: 1 2 3 4 5 6 7 8 9 10 11 12 13 14 15 16 17 18 19 20 21 22 23 24 25 26 27 28 29 30 31 32 33 34 35 36 37 38 39 40 41 42 43 44 45 46 47 48 49 50

734
NZUS93 KARX 260710
HRRWXR

CURRENT HOURLY OBSERVATIONS ACROSS
MUCH OF THE UPPER MISSISSIPPI VALLEY
NATIONAL WEATHER SERVICE LA CROSSE WI
200 AM CDT SAT MAY 26 2018


...SOUTHEAST MINNESOTA...


CITY           SKY/WX    TMP DP  RH WIND       PRES   REMARKS
ROCHESTER      FAIR      64  61  90 S13       29.74F
ROCHESTER/MAYO FAIR      65  63  92 S7        29.74S
WINONA         FAIR      63  59  88 CALM      29.71F
AUSTIN         FAIR      63  59  88 S5        29.75F
ALBERT LEA     FAIR      64  61  88 SE6       29.75F
DODGE CENTER   FAIR      64  59  82 S9        29.74F
PRESTON        FAIR      63  58  84 SW12      29.75F
OWATONNA       FAIR      66  63  88 S13       29.73F
FARIBAULT      FAIR      64  61  88 CALM      29.73S
$$

...ELSEWHERE IN MINNESOTA...


CITY           SKY/WX    TMP DP  RH WIND       PRES   REMARKS
MINNEAPOLIS    FAIR      70  60  70 SW8       29.70F
INTNL FALLS    FAIR      59  57  93 S6        29.60S
DULUTH         FAIR      70  58  65 SW12      29.64F
RED WING       FAIR      63  59  88 CALM      29.70S
REDWOOD FALLS  CLEAR     65  61  87 CALM      29.69F
MANKATO        FAIR      66  61  84 S8        29.73S
WORTHINGTON    CLEAR     67  57  70 SW6       29.77S
FAIRMONT       CLEAR     69  61  75 SW8       29.74F
$$

...SOUTHWEST WISCONSIN...


CITY           SKY/WX    TMP DP  RH WIND       PRES   REMARKS
LA CROSSE      FAIR      65  61  87 SE6       29.70F
PRAIRIE DU CHI FAIR      65  59  81 SW5       29.72F
BOSCOBEL       FAIR      66  61  84 S3        29.71S
LONE ROCK      FAIR      64  62  93 SE5       29.70F
PLATTEVILLE    MOCLDY    66  62  87 SW15      29.71F
FORT MC COY    FAIR      59  58  97 CALM      29.72S
CAMP DOUGLAS   FAIR      63  61  93 SW3       29.71S
MAUSTON-NEW LI FAIR      65  61  87 CALM      29.71S
VIROQUA        FAIR      64  61  88 W9        29.73F
WIS DELLS      FAIR      65  58  77 CALM      29.72S
$$

...ELSEWHERE IN WISCONSIN...


CITY           SKY/WX    TMP DP  RH WIND       PRES   REMARKS
MILWAUKEE      FAIR      71  64  78 S7        29.72S
MADISON        FAIR      67  62  84 CALM      29.70F
GREEN BAY      FAIR      70  61  73 S5        29.69F
EAU CLAIRE     FAIR      60  59  96 SW5       29.69S
BLACK RVR FLS  FAIR      63  62  97 SW5       29.71R
MEDFORD        FAIR      58  58  98 CALM      29.72S FOG
WAUSAU         NOT AVBL
WIS RAPIDS     FAIR      62  60  93 CALM      29.72F
MARSHFIELD     FAIR      62  59  90 CALM      29.70F
RICE LAKE      FAIR      61  59  94 CALM      29.71S
$$

...NORTHEAST IOWA...


CITY           SKY/WX    TMP DP  RH WIND       PRES   REMARKS
WATERLOO       FAIR      66  64  93 SE10      29.75F
DUBUQUE        FAIR      63  60  90 SW13      29.76F
DECORAH        CLOUDY    63  63 100 S6        29.74S
MASON CITY     CLEAR     65  63  93 SE7       29.76F
CHARLES CITY   FAIR      64  61  88 SE8       29.76F
OELWEIN        CLOUDY    64  63  94 S12       29.78S
$$

...ELSEWHERE IN IOWA...


CITY           SKY/WX    TMP DP  RH WIND       PRES   REMARKS
DES MOINES     PTCLDY    74  66  76 SW5       29.73S
IOWA CITY      TSTM      64  60  87 N22G43    29.86R FOG
FORT DODGE     CLEAR     66  62  87 CALM      29.74F
MARSHALLTOWN   CLEAR     68  65  90 SE15      29.76F
CEDAR RAPIDS   TSTM      63  63 100 VRB7      29.83F FOG
$$

...NORTHERN ILLINOIS...


CITY           SKY/WX    TMP DP  RH WIND       PRES   REMARKS
CHICAGO-OHARE  FAIR      73  64  73 SW10      29.74F
CHICAGO-MIDWAY MOCLDY    71  68  90 SW7       29.76F
MOLINE         FAIR      66  63  90 N7        29.80R
ROCKFORD       CLOUDY    68  59  73 W8        29.78R
PEORIA         FAIR      66  66 100 CALM      29.79F FOG
$$

NOTE: "FAIR" INDICATES FEW OR NO CLOUDS BELOW 12,000 FEET WITH NO
SIGNIFICANT WEATHER AND/OR OBSTRUCTIONS TO VISIBILITY. WIND
SPEEDS ARE IN MILES-PER-HOUR.




USA.gov is the U.S. government's official web portal to all federal, state and local government web resources and services.